Missoula, Montana, United States (59801)
Lat: 46.87N, Lon: 113.99W
Wx Zone: MTZ005
Local Info
Past Weather Observations for Today

NOTE: This archive is for the closest National Weather Service station to Missoula. Information may differ from the station used for current weather conditions.

Click here for Long-term Archive

Time Weather Temperature Dewpoint Humidity Pressure Winds Precip Visibility
19:53
Clear
Hazy
70°F / 21°C 36°F / 2°C 29% 30.15 in
(1021 mb)
NW 5.8 mph
(NW 9 kph)
- 6SM
18:53
Partly Cloudy
Hazy
79°F / 26°C 34°F / 1°C 20% 30.12 in
(1020 mb)
W 16.1 mph
(W 26 kph)
- 5SM
17:53
Clear
82°F / 28°C 30°F / -1°C 15% 30.09 in
(1019 mb)
NNW 13.8 mph
(NNW 22 kph)
- 10SM
16:53
Partly Cloudy
84°F / 29°C 28°F / -2°C 13% 30.06 in
(1018 mb)
NW 10.4 mph
(NW 17 kph)
- 10SM
15:53
Clear
82°F / 28°C 30°F / -1°C 15% 30.06 in
(1018 mb)
W 15 mph
(W 24 kph)
- 10SM
14:53
Clear
84°F / 29°C 30°F / -1°C 14% 30.06 in
(1018 mb)
Variable 4.6 mph
(Variable 7 kph)
- 10SM
13:53
Clear
82°F / 28°C 30°F / -1°C 15% 30.06 in
(1018 mb)
Calm - 10SM
12:53
Clear
81°F / 27°C 34°F / 1°C 18% 30.06 in
(1018 mb)
NE 6.9 mph
(NE 11 kph)
- 10SM
11:53
Clear
75°F / 24°C 39°F / 4°C 27% 30.06 in
(1018 mb)
N 9.2 mph
(N 15 kph)
- 10SM
10:53
Clear
73°F / 23°C 43°F / 6°C 33% 30.09 in
(1019 mb)
NNW 4.6 mph
(NNW 7 kph)
- 10SM
09:53
Clear
72°F / 22°C 43°F / 6°C 36% 30.09 in
(1019 mb)
NW 9.2 mph
(NW 15 kph)
- 10SM
08:53
Clear
73°F / 23°C 45°F / 7°C 36% 30.06 in
(1018 mb)
W 10.4 mph
(W 17 kph)
- 10SM
07:53
Clear
70°F / 21°C 45°F / 7°C 40% 30.04 in
(1017 mb)
NW 11.5 mph
(NW 19 kph)
- 10SM
06:53
Clear
63°F / 17°C 46°F / 8°C 56% 30.04 in
(1017 mb)
SSW 3.5 mph
(SSW 6 kph)
- 10SM
05:53
Clear
61°F / 16°C 45°F / 7°C 55% 30.01 in
(1016 mb)
N 8.1 mph
(N 13 kph)
- 10SM
04:53
Partly Cloudy
64°F / 18°C 45°F / 7°C 49% 30.01 in
(1016 mb)
Variable 5.8 mph
(Variable 9 kph)
- 10SM
03:53
Clear
64°F / 18°C 45°F / 7°C 49% 29.98 in
(1015 mb)
SW 6.9 mph
(SW 11 kph)
- 10SM
02:53
Overcast
70°F / 21°C 43°F / 6°C 38% 29.95 in
(1014 mb)
Calm - 10SM
01:53
Overcast
72°F / 22°C 43°F / 6°C 36% 29.92 in
(1013 mb)
E 3.5 mph
(E 6 kph)
- 10SM
00:53
Clear
72°F / 22°C 43°F / 6°C 36% 29.92 in
(1013 mb)
SSW 6.9 mph
(SSW 11 kph)
- 10SM
Time Weather Temperature Dewpoint Humidity Pressure Winds Precip Visibility


Weather for websites

WeatherForYou.com, LLC is not responsible for any damages or problems caused by this service. Current weather conditions are obtained from the closest station including government and personal stations which may have varying degrees of accuracy. Weather forecasts are derived from the NOAA NDFD. Like all things, this site belongs to Jesus Christ... He just trusts us to maintain it. If you have any questions or comments email webmaster@weatherforyou.com

Copyright © 2016, WeatherForYou.com LLC. All rights reserved.